�N����,����,�~����,�C��,���x,�C��,����,���ϕ���,�ő�u�ԕ���,�ő厞����,���˗�,�I�_���x,�n�����x,�ő啗���N��,DTYPE
"22/09/30","00:10",0.0,18.7,87.9,1009.7,330.9,2.1,3.7,325.2,0.00,16.7,22.5,"00:09:28",1
"22/09/30","00:20",0.0,18.8,88.2,1010.0,326.7,2.7,3.9,325.2,0.00,16.8,22.6,"00:17:28",1
"22/09/30","00:30",0.0,18.8,88.4,1010.2,328.5,2.5,4.9,345.3,0.00,16.9,22.6,"00:21:20",1
"22/09/30","00:40",0.0,18.6,88.7,1010.0,332.5,2.3,4.7,337.8,0.00,16.7,22.3,"00:35:12",1
"22/09/30","00:50",0.0,18.5,89.1,1010.0,332.4,2.6,4.1,344.5,0.00,16.7,22.4,"00:43:20",1
"22/09/30","01:00",0.0,18.4,89.4,1010.4,330.4,2.6,4.2,341.2,0.00,16.7,22.4,"00:59:44",1
"22/09/30","01:10",0.0,18.3,89.6,1010.2,333.1,2.3,4.9,334.2,0.00,16.6,22.3,"01:02:56",1
"22/09/30","01:20",0.0,18.2,89.9,1009.7,335.0,2.3,3.4,318.5,0.00,16.6,22.2,"01:16:24",1
"22/09/30","01:30",0.0,18.0,90.1,1009.7,330.8,2.2,3.7,341.7,0.00,16.4,22.4,"01:21:12",1
"22/09/30","01:40",0.0,18.2,90.4,1010.0,329.8,2.3,4.4,339.8,0.00,16.6,22.3,"01:39:20",1
"22/09/30","01:50",0.0,18.1,90.5,1009.7,324.2,2.1,3.1,338.0,0.00,16.6,22.3,"01:40:48",1
"22/09/30","02:00",0.0,18.1,90.6,1010.2,314.3,2.3,3.7,330.6,0.00,16.6,22.2,"01:51:20",1
"22/09/30","02:10",0.0,18.1,90.7,1009.7,326.2,2.7,4.8,341.2,0.00,16.6,22.2,"02:09:20",1
"22/09/30","02:20",0.0,18.1,90.8,1009.7,323.4,2.6,4.1,306.7,0.00,16.6,22.1,"02:15:28",1
"22/09/30","02:30",0.0,18.1,90.9,1009.7,330.0,3.0,5.4,335.2,0.00,16.6,22.2,"02:28:40",1
"22/09/30","02:40",0.0,18.1,91.0,1009.5,328.6,3.0,4.7,328.6,0.00,16.6,22.1,"02:33:44",1
"22/09/30","02:50",0.0,18.1,91.1,1009.7,327.6,2.6,4.2,345.9,0.00,16.7,22.1,"02:47:52",1
"22/09/30","03:00",0.0,18.0,91.2,1010.0,323.9,2.6,4.4,330.0,0.00,16.6,22.2,"02:51:44",1
"22/09/30","03:10",0.0,17.9,91.3,1009.7,320.7,2.2,5.0,333.9,0.00,16.5,22.2,"03:06:00",1
"22/09/30","03:20",0.0,17.9,91.5,1009.7,315.6,2.2,3.6,310.7,0.00,16.5,21.9,"03:18:16",1
"22/09/30","03:30",0.0,17.8,91.6,1009.7,323.8,2.3,4.3,337.8,0.00,16.5,21.9,"03:23:44",1
"22/09/30","03:40",0.0,17.7,91.8,1009.5,324.2,2.2,3.9,311.3,0.00,16.4,22.2,"03:39:44",1
"22/09/30","03:50",0.0,17.7,91.9,1009.7,326.6,2.5,4.2,331.9,0.00,16.4,22.0,"03:41:44",1
"22/09/30","04:00",0.0,17.5,92.0,1010.0,315.8,1.6,2.7,344.1,0.00,16.2,22.0,"03:50:32",1
"22/09/30","04:10",0.0,17.4,92.3,1009.7,312.4,1.7,2.9,329.2,0.00,16.2,22.0,"04:09:28",1
"22/09/30","04:20",0.0,17.5,92.4,1010.0,325.2,2.2,3.6,325.2,0.00,16.3,21.9,"04:13:20",1
"22/09/30","04:30",0.0,17.5,92.6,1010.0,325.5,2.1,3.6,333.7,0.00,16.3,21.9,"04:26:00",1
"22/09/30","04:40",0.0,17.4,92.7,1009.7,326.6,2.1,3.6,324.5,0.00,16.2,21.8,"04:34:00",1
"22/09/30","04:50",0.0,17.2,92.9,1009.7,329.5,1.7,3.6,324.0,0.00,16.1,21.8,"04:46:32",1
"22/09/30","05:00",0.0,17.2,93.2,1010.0,330.5,1.8,4.0,347.2,0.00,16.1,21.8,"04:58:08",1
"22/09/30","05:10",0.0,17.1,93.4,1010.0,323.2,2.2,3.6,352.6,0.00,16.1,21.7,"05:03:28",1
"22/09/30","05:20",0.0,17.2,93.6,1010.0,328.9,2.2,3.6,333.6,0.00,16.2,21.9,"05:19:04",1
"22/09/30","05:30",0.0,17.2,93.7,1010.0,328.8,2.1,4.3,339.7,0.00,16.2,21.9,"05:24:56",1
"22/09/30","05:40",0.0,17.0,93.8,1010.2,330.6,1.7,3.2,338.4,0.00,16.0,21.7,"05:39:20",1
"22/09/30","05:50",0.0,17.1,94.0,1010.2,326.1,2.1,3.9,322.5,0.00,16.2,21.7,"05:46:00",1
"22/09/30","06:00",0.0,17.1,94.2,1010.4,330.8,2.3,4.0,332.4,0.00,16.2,21.6,"05:55:20",1
"22/09/30","06:10",0.0,17.0,94.2,1010.7,328.9,2.3,4.2,337.0,0.00,16.1,21.7,"06:08:16",1
"22/09/30","06:20",0.0,16.8,94.4,1010.7,329.7,2.1,3.3,328.3,0.00,15.9,21.7,"06:19:28",1
"22/09/30","06:30",0.0,16.9,94.6,1010.7,333.2,2.2,4.5,343.7,0.00,16.1,21.6,"06:27:20",1
"22/09/30","06:40",0.0,16.9,94.7,1011.2,325.5,2.2,4.2,319.1,0.00,16.1,21.6,"06:38:16",1
"22/09/30","06:50",0.0,16.9,94.7,1010.7,306.7,2.0,4.1,328.5,0.00,16.1,21.5,"06:44:16",1
"22/09/30","07:00",0.0,17.1,94.8,1011.2,323.1,2.2,3.6,332.6,0.00,16.3,21.7,"06:59:04",1
"22/09/30","07:10",0.0,17.3,94.8,1010.9,336.6,2.0,3.6,313.4,0.00,16.5,21.8,"07:01:44",1
"22/09/30","07:20",0.0,17.6,94.8,1010.9,344.8,1.6,2.9,339.2,0.01,16.8,21.5,"07:12:32",1
"22/09/30","07:30",0.0,18.0,94.6,1011.2,337.4,1.6,3.4,345.3,0.03,17.2,21.5,"07:21:36",1
"22/09/30","07:40",0.0,18.3,94.3,1011.6,329.2,1.8,3.4,335.5,0.04,17.4,21.4,"07:32:24",1
"22/09/30","07:50",0.0,18.6,94.1,1011.6,324.4,2.1,3.6,335.7,0.06,17.7,21.4,"07:45:28",1
"22/09/30","08:00",0.0,18.9,93.6,1011.9,333.0,2.3,4.7,339.4,0.09,17.9,21.4,"07:55:44",1
"22/09/30","08:10",0.0,19.1,93.2,1011.9,333.0,2.6,4.4,337.7,0.11,18.0,21.5,"08:03:52",1
"22/09/30","08:20",0.0,19.4,92.7,1012.1,320.9,2.1,4.2,345.5,0.14,18.2,21.7,"08:11:20",1
"22/09/30","08:30",0.0,19.8,91.8,1011.6,294.9,1.2,3.5,296.8,0.16,18.5,21.6,"08:21:44",1
"22/09/30","08:40",0.0,20.6,90.9,1011.4,313.7,1.1,2.5,331.5,0.19,19.1,21.5,"08:36:16",1
"22/09/30","08:50",0.0,21.3,89.2,1011.6,313.9,1.0,2.1,317.6,0.21,19.5,21.6,"08:42:48",1
"22/09/30","09:00",0.0,21.8,86.1,1011.2,322.3,1.2,2.1,326.9,0.24,19.4,21.5,"08:57:12",1
"22/09/30","09:10",0.0,22.2,83.5,1011.4,312.3,1.3,2.9,332.2,0.26,19.3,21.5,"09:00:32",1
"22/09/30","09:20",0.0,23.0,81.4,1011.4,297.4,0.8,2.2,305.3,0.28,19.7,21.5,"09:11:20",1
"22/09/30","09:30",0.0,23.3,79.4,1011.4,221.6,0.7,2.1,219.4,0.31,19.6,21.7,"09:22:00",1
"22/09/30","09:40",0.0,23.7,77.4,1010.7,322.2,0.7,2.7,331.9,0.33,19.6,21.7,"09:38:40",1
"22/09/30","09:50",0.0,24.2,76.0,1010.9,319.3,1.0,2.2,357.4,0.36,19.7,21.6,"09:43:44",1
"22/09/30","10:00",0.0,24.3,74.5,1010.7,8.5,0.8,1.9,4.0,0.35,19.5,21.7,"09:55:36",1
"22/09/30","10:10",0.0,24.6,72.9,1010.2,245.7,0.7,1.7,72.5,0.38,19.5,21.8,"10:00:40",1
"22/09/30","10:20",0.0,24.9,72.1,1010.4,24.5,0.7,2.1,39.3,0.31,19.6,21.8,"10:12:32",1
"22/09/30","10:30",0.0,25.4,70.4,1009.7,114.2,0.6,1.6,33.0,0.43,19.7,22.0,"10:22:00",1
"22/09/30","10:40",0.0,26.1,68.6,1009.5,109.6,0.6,1.6,79.3,0.44,19.9,21.9,"10:33:20",1
"22/09/30","10:50",0.0,26.1,68.6,1010.0,217.4,1.2,2.9,220.5,0.45,19.9,22.0,"10:48:48",1
"22/09/30","11:00",0.0,26.3,67.6,1009.7,246.2,1.0,2.4,208.5,0.47,19.9,22.0,"10:51:36",1
"22/09/30","11:10",0.0,27.0,66.0,1009.7,78.7,0.8,2.6,113.4,0.49,20.1,22.1,"11:01:28",1
"22/09/30","11:20",0.0,27.1,64.0,1009.7,74.4,1.0,2.4,357.2,0.45,19.7,22.4,"11:12:00",1
"22/09/30","11:30",0.0,27.1,63.9,1010.0,328.3,1.0,2.6,340.3,0.49,19.7,22.3,"11:22:08",1
"22/09/30","11:40",0.0,27.2,62.8,1010.4,145.2,0.7,2.0,195.3,0.34,19.5,22.2,"11:34:24",1
"22/09/30","11:50",0.0,26.5,65.7,1009.7,173.5,0.7,1.7,226.5,0.17,19.6,22.5,"11:40:48",1
"22/09/30","12:00",0.0,26.8,65.9,1009.5,173.2,0.5,2.7,155.7,0.31,19.9,22.5,"11:57:28",1
"22/09/30","12:10",0.0,27.9,61.5,1009.7,33.2,1.0,2.6,24.0,0.53,19.9,22.6,"12:03:20",1
"22/09/30","12:20",0.0,27.5,62.1,1009.3,36.0,1.0,2.8,6.1,0.25,19.6,22.5,"12:11:44",1
"22/09/30","12:30",0.0,28.6,58.6,1009.5,42.2,1.1,2.7,17.3,0.56,19.7,22.6,"12:24:00",1
"22/09/30","12:40",0.0,28.9,55.6,1009.0,25.6,1.0,3.1,22.2,0.44,19.2,22.7,"12:36:56",1
"22/09/30","12:50",0.0,29.1,56.4,1009.0,12.2,1.3,3.6,25.3,0.56,19.6,22.8,"12:43:52",1
"22/09/30","13:00",0.0,28.6,55.3,1008.8,27.8,1.3,2.6,351.0,0.35,18.8,22.8,"12:58:48",1
"22/09/30","13:10",0.0,29.2,55.8,1008.6,43.2,0.8,2.7,19.3,0.48,19.5,22.9,"13:09:44",1
"22/09/30","13:20",0.0,29.9,54.6,1008.6,98.3,0.7,1.9,5.7,0.49,19.8,22.9,"13:17:44",1
"22/09/30","13:30",0.0,29.8,55.2,1008.8,122.9,1.0,2.6,38.0,0.42,19.9,23.3,"13:21:04",1
"22/09/30","13:40",0.0,29.7,55.1,1008.6,96.8,1.0,2.9,75.5,0.48,19.8,23.2,"13:31:12",1
"22/09/30","13:50",0.0,30.1,53.0,1008.6,79.7,0.7,2.4,23.8,0.43,19.5,23.2,"13:45:36",1
"22/09/30","14:00",0.0,28.8,55.0,1008.1,64.2,0.7,1.9,132.2,0.10,18.9,23.4,"13:53:44",1
"22/09/30","14:10",0.0,28.4,57.1,1007.8,41.4,1.0,2.4,14.8,0.20,19.1,23.4,"14:00:32",1
"22/09/30","14:20",0.0,28.6,53.9,1007.6,88.3,0.7,1.9,28.6,0.20,18.4,23.6,"14:19:44",1
"22/09/30","14:30",0.0,28.6,57.3,1007.1,51.2,0.5,1.9,15.6,0.19,19.4,23.7,"14:21:20",1
"22/09/30","14:40",0.0,29.7,52.1,1007.1,6.1,0.8,2.4,32.8,0.41,18.9,23.7,"14:36:56",1
"22/09/30","14:50",0.0,29.1,51.1,1007.1,35.2,0.8,1.8,66.3,0.10,18.0,23.7,"14:43:12",1
"22/09/30","15:00",0.0,29.5,52.1,1007.1,35.7,0.8,1.8,344.4,0.31,18.7,23.7,"14:50:48",1
"22/09/30","15:10",0.0,29.1,51.9,1007.1,70.4,0.7,1.8,49.7,0.14,18.3,23.7,"15:04:16",1
"22/09/30","15:20",0.0,29.2,52.0,1007.1,105.4,0.7,1.4,13.3,0.17,18.4,23.8,"15:12:08",1
"22/09/30","15:30",0.0,28.6,55.4,1007.1,81.7,0.7,2.2,135.4,0.10,18.8,24.1,"15:21:36",1
"22/09/30","15:40",0.0,28.3,58.1,1006.7,82.3,0.8,2.7,12.9,0.14,19.3,23.8,"15:34:08",1
"22/09/30","15:50",0.0,29.6,54.1,1006.9,106.3,1.1,3.1,351.8,0.26,19.4,24.0,"15:42:56",1
"22/09/30","16:00",0.0,29.9,53.1,1007.4,97.0,0.8,2.1,118.7,0.20,19.4,23.8,"15:58:24",1
"22/09/30","16:10",0.0,29.0,53.8,1007.4,59.9,0.6,1.9,42.8,0.09,18.7,23.9,"16:09:00",1
"22/09/30","16:20",0.0,28.9,54.9,1006.9,26.1,0.5,1.4,16.2,0.10,19.0,24.0,"16:15:04",1
"22/09/30","16:30",0.0,29.2,56.3,1006.7,47.6,0.5,1.4,104.2,0.12,19.7,23.9,"16:20:08",1
"22/09/30","16:40",0.0,29.2,54.5,1007.1,105.5,0.6,1.8,67.1,0.12,19.1,24.0,"16:39:36",1
"22/09/30","16:50",0.0,28.7,55.6,1006.9,126.5,0.7,2.6,126.7,0.07,19.0,24.0,"16:40:32",1
"22/09/30","17:00",0.0,27.9,57.8,1006.7,103.6,0.7,1.9,95.9,0.06,18.9,24.0,"16:57:36",1
"22/09/30","17:10",0.0,27.5,58.9,1006.7,141.3,0.7,2.1,137.2,0.03,18.8,23.9,"17:04:48",1
"22/09/30","17:20",0.0,27.3,60.7,1006.4,329.1,0.5,1.2,38.8,0.03,19.1,24.1,"17:19:52",1
"22/09/30","17:30",0.0,27.5,59.5,1006.4,343.8,0.7,1.3,337.5,0.02,19.0,24.1,"17:27:36",1
"22/09/30","17:40",0.0,27.5,59.0,1007.1,349.0,0.6,1.7,32.6,0.01,18.8,24.1,"17:38:48",1
"22/09/30","17:50",0.0,27.0,60.5,1006.9,347.6,0.7,1.4,326.9,0.00,18.7,24.0,"17:47:52",1
"22/09/30","18:00",0.0,25.8,63.9,1007.4,344.8,0.8,1.4,343.0,0.00,18.5,24.1,"17:55:28",1
"22/09/30","18:10",0.0,24.9,66.7,1007.6,317.2,0.5,0.9,0.9,0.00,18.3,24.0,"18:01:44",1
"22/09/30","18:20",0.0,24.3,68.9,1007.4,318.8,0.7,1.2,328.7,0.00,18.3,24.2,"18:19:04",1
"22/09/30","18:30",0.0,23.6,71.4,1007.4,310.5,1.0,2.2,342.0,0.00,18.2,23.9,"18:28:00",1
"22/09/30","18:40",0.0,23.2,74.5,1007.6,292.2,1.1,2.1,331.1,0.00,18.5,23.9,"18:39:04",1
"22/09/30","18:50",0.0,22.9,76.1,1007.8,282.3,1.0,1.6,263.0,0.00,18.5,23.7,"18:40:40",1
"22/09/30","19:00",0.0,22.5,77.4,1008.1,308.4,1.1,1.8,314.4,0.00,18.4,23.9,"18:50:02",1
"22/09/30","19:10",0.0,22.3,78.5,1008.1,308.7,1.2,2.1,330.6,0.00,18.4,23.8,"19:01:52",1
"22/09/30","19:20",0.0,22.0,79.5,1008.3,308.2,1.2,1.9,311.2,0.00,18.3,23.8,"19:16:16",1
"22/09/30","19:30",0.0,21.6,80.4,1008.6,300.9,1.1,1.9,336.8,0.00,18.1,23.9,"19:27:20",1
"22/09/30","19:40",0.0,21.6,81.3,1008.8,300.4,1.2,2.5,326.8,0.00,18.3,23.7,"19:34:24",1
"22/09/30","19:50",0.0,21.4,81.8,1009.3,317.8,1.5,2.6,305.2,0.00,18.2,23.7,"19:47:44",1
"22/09/30","20:00",0.0,21.4,82.2,1009.3,313.5,1.5,2.1,323.8,0.00,18.3,23.7,"19:56:08",1
"22/09/30","20:10",0.0,21.2,82.6,1009.3,296.2,1.1,2.1,309.0,0.00,18.2,23.7,"20:00:16",1
"22/09/30","20:20",0.0,21.0,83.1,1009.5,312.0,1.3,1.9,318.9,0.00,18.1,23.5,"20:19:36",1
"22/09/30","20:30",0.0,20.9,83.6,1009.7,315.5,1.6,2.5,328.8,0.00,18.1,23.4,"20:22:16",1
"22/09/30","20:40",0.0,20.9,83.8,1009.7,307.4,1.6,2.8,314.0,0.00,18.1,23.5,"20:32:40",1
"22/09/30","20:50",0.0,20.8,84.0,1010.0,312.0,1.2,2.1,318.8,0.00,18.0,23.4,"20:41:44",1
"22/09/30","21:00",0.0,20.7,84.4,1010.0,314.9,1.6,3.4,341.8,0.00,18.0,23.5,"20:53:44",1
"22/09/30","21:10",0.0,20.5,84.6,1010.4,315.7,1.3,2.2,318.8,0.00,17.9,23.3,"21:00:02",1
"22/09/30","21:20",0.0,20.3,84.9,1010.7,305.6,1.5,2.6,316.3,0.00,17.7,23.4,"21:16:32",1
"22/09/30","21:30",0.0,20.0,85.1,1010.0,320.4,1.2,2.4,320.3,0.00,17.5,23.2,"21:20:16",1
"22/09/30","21:40",0.0,19.6,85.6,1010.4,315.3,1.0,2.0,308.9,0.00,17.2,23.2,"21:38:16",1
"22/09/30","21:50",0.0,19.7,86.3,1010.4,290.9,1.2,1.9,300.5,0.00,17.4,23.1,"21:40:40",1
"22/09/30","22:00",0.0,19.5,86.6,1010.4,291.1,0.8,1.4,302.5,0.00,17.2,23.2,"21:50:08",1
"22/09/30","22:10",0.0,19.2,86.9,1010.4,287.6,0.7,1.4,290.8,0.00,17.0,23.1,"22:06:08",1
"22/09/30","22:20",0.0,19.1,87.3,1010.4,302.8,1.0,1.7,333.1,0.00,17.0,23.0,"22:10:56",1
"22/09/30","22:30",0.0,19.0,87.6,1010.7,306.4,1.2,2.1,261.1,0.00,16.9,23.1,"22:24:00",1
"22/09/30","22:40",0.0,19.0,87.9,1010.4,295.1,1.1,1.7,301.9,0.00,17.0,22.9,"22:30:16",1
"22/09/30","22:50",0.0,18.8,88.1,1010.7,290.2,1.1,1.6,336.7,0.00,16.8,22.7,"22:40:08",1
"22/09/30","23:00",0.0,18.8,88.2,1010.7,284.1,1.2,1.9,246.7,0.00,16.8,22.8,"22:56:16",1
"22/09/30","23:10",0.0,18.9,88.0,1010.7,300.8,1.5,2.5,317.2,0.00,16.9,22.8,"23:06:08",1
"22/09/30","23:20",0.0,18.8,87.9,1010.9,291.4,1.1,1.7,324.5,0.00,16.8,22.9,"23:11:04",1
"22/09/30","23:30",0.0,18.8,87.8,1010.7,288.6,1.2,2.1,337.4,0.00,16.8,22.6,"23:27:52",1
"22/09/30","23:40",0.0,18.8,87.6,1010.9,297.7,1.2,1.8,330.7,0.00,16.7,22.6,"23:36:08",1
"22/09/30","23:50",0.0,18.6,87.6,1011.2,324.7,1.0,1.7,323.8,0.00,16.5,22.8,"23:44:32",1
"22/09/30","24:00",0.0,18.4,87.8,1010.9,282.7,1.0,1.4,267.8,0.00,16.4,22.6,"23:56:00",1
